Probability
0 0 0 0 0 0 0 0 0 0 0 0 0 0 0 0 0 0 0 0 0 0 0 0 0 0 0 0 0 0 0 0 0 0 0 0 0 0 0 0 0 0 0
0 0 0 0 0 0 0 0 0 0 0 0 0 0 0 0 0 0 0 0 0 0 0 0 0 0 0 0 0 0 0 0 0 0 0 0 0 0 0 0 0 0 0
0 0 0 0 0 0 0 0 0 0 0 0 0 0 0 0 0 0 0 0 0 0 0 0 0 0 0 0 0 0 0 0 0 0 0 0 0 0 0 0 0 0 0
0 0 0 0 0 0 0 0 0 0 0 0 0 0 0 0 0 0 0 0 0 0 0 0 0 0 0 0 0 0 0 0 0 0 0 0 0 0 0 0 0 0 0
0 0 0 0 0 0 0 0 0 0 0 0 0 0 0 0 0 0 0 0 0 0 0 0 0 0 0 0 0 0 0 0 0 0 0 0 0 0 0 0 0 0 0
0 0 0 0 0 0 0 0 0 0 0 0 0 0 0 0 0 0 0 0 0 0 0 0 0 0 0 0 0 0 0 0 0 0 0 0 0 0 0 0 0 0 0
0 0 0 0 0 0 0 0 0 0 0 0 0 0 0 0 0 0 0 0 0 0 0 0 0 0 0 0 0 0 0 0 0 0 0 0 0 0 0 0 0 0 0
0 0 0 0 0 0 0 0 0 0 0 0 0 0 0 0 0 0 0 0 0 0 0 0 0 0 0 0 0 0 0 0 0 0 0 0 0 0 0 0 0 0 0
0 0 0 0 0 0 0 0 0 0 0 0 0 0 0 0 0 0 0 0 0 0 0 0 0 0 0 0 0 0 0 0 0 0 0 0 0 0 0 0 0 0 0
0 0 0 0 0 0 0 0 0 0 0 0 0 0 0 0 0 0 0 0 0 0 0 0 0 0 0 0 0 0 0 0 0 0 0 0 0 0 0 0 0 0 0
0 0 0 0 0 0 0 0 0 0 0 0 0 0 0 0 0 0 0 0 0 0 0 0 0 0 0 0 0 0 0 0 0 0 0 0 0 0 0 0 0 0 0
0 0 0 0 0 0 0 0 0 0 0 0 0 0 0 0 0 0 0 0 0 0 0 0 0 0 0 0 0 0 0 0 0 0 0 0 0 0 0 0 0 0 0
0 0 0 0 0 0 0 0 0 0 0 0 0 0 0 0 0 0 0 0 0 0 0 0 0 0 0 0 0 0 0 0 0 0 0 0 0 0 0 0 0 0 0
0 0 0 0 0 0 0 0 0 0 0 0 0 0 0 0 0 0 0 0 0 0 0 0 0 0 0 0 0 0 0 0 0 0 0 0 0 0 0 0 0 0 0
1 0 0 0 0 0 0 0 0 0 0 0 0 0 0 0 0 0 0 0 0 0 0 0 0 0 0 0 0 0 0 0 0 0 0 0 0 0 0 0 0 0 0
1 1 1 0 0 0 0 0 0 0 0 0 0 0 0 0 0 0 0 0 0 0 0 0 0 0 0 0 0 0 0 0 0 0 0 0 0 0 0 0 0 0 0
1 1 1 0 0 0 0 1 1 1 0 0 0 0 0 0 0 0 0 0 0 0 0 0 0 0 0 0 0 0 0 0 0 0 0 0 0 0 0 0 0 0 0
0 1 1 0 0 0 0 1 2 1 0 0 0 0 0 0 0 0 0 0 0 0 0 0 0 0 0 0 0 0 0 0 0 0 0 0 0 0 0 0 0 0 0
0 0 0 0 0 0 0 1 1 1 0 0 0 0 0 0 0 0 0 0 0 0 0 0 0 0 0 0 0 0 0 0 0 0 0 0 0 0 0 0 0 0 0
0 0 0 0 0 0 0 0 0 0 0 0 0 0 0 0 0 0 0 0 0 0 0 0 0 0 0 0 0 0 0 0 0 0 0 0 0 0 0 0 0 0 0
0 0 0 0 0 0 0 0 0 0 0 0 0 0 0 0 0 0 0 0 0 0 0 0 0 0 0 0 0 0 0 0 0 0 0 0 0 0 0 0 0 0 0
0 0 0 0 0 0 0 0 0 0 0 0 0 0 0 0 0 0 0 0 0 0 0 0 0 0 0 0 0 0 0 0 0 0 0 0 0 0 0 0 0 0 0
0 0 0 0 0 0 0 0 0 0 0 0 0 0 0 0 0 0 0 0 0 0 0 0 0 0 0 0 0 0 0 0 0 0 0 0 0 0 0 0 0 0 0
0 0 0 0 0 0 0 0 0 0 0 0 0 0 0 0 0 0 0 0 0 0 0 0 0 0 0 0 0 0 0 0 0 0 0 0 0 0 0 0 0 0 0
0 0 0 0 0 0 0 0 0 0 0 0 0 0 0 0 0 0 0 0 0 0 0 0 0 0 0 0 0 0 0 0 0 0 0 0 0 0 0 0 0 0 0
0 0 0 0 0 0 0 0 0 0 0 0 0 0 0 0 0 0 0 0 0 0 0 0 0 0 0 0 0 0 0 0 0 0 0 0 0 0 0 0 0 0 0
Wind_Speed
5 4 4 4 4 3 3 3 3 3 3 3 3 3 3 3 3 3 2 5 6 7 8 9 8 8 7 7 7 7 7 7 6 4 4 4 4 4 4 5 5 6 6
5 5 5 4 4 4 4 4 4 4 3 3 3 3 4 3 3 3 3 3 5 6 8 8 8 8 8 8 8 7 7 6 5 4 4 4 4 4 4 4 5 5 6
6 5 5 5 5 4 4 3 4 3 3 3 3 4 3 3 3 3 3 2 3 4 5 7 7 7 7 7 7 6 6 6 5 4 4 4 4 4 4 4 5 5 6
7 6 5 5 5 4 4 4 3 3 3 3 2 3 3 2 3 3 3 2 2 2 3 4 4 5 6 6 6 6 6 5 5 4 4 4 4 4 5 4 5 5 5
6 5 5 4 5 4 4 4 4 3 3 3 3 3 3 3 3 3 3 3 2 2 2 1 2 3 5 6 6 6 6 6 5 4 4 4 4 5 5 5 5 5 5
6 5 4 4 4 4 4 4 4 3 3 3 2 3 3 3 3 3 3 3 2 2 2 2 2 2 3 5 6 7 7 6 6 5 5 5 5 6 6 6 6 6 6
6 5 4 4 4 4 5 5 4 4 3 2 1 2 3 3 3 3 3 3 2 2 2 1 1 1 2 4 5 6 7 7 6 5 5 6 6 6 6 6 6 6 7
6 6 6 5 5 4 5 5 4 3 3 3 3 2 2 3 2 3 2 3 3 2 1 2 1 1 1 1 3 5 6 7 7 6 6 5 6 6 6 6 6 7 7
5 5 6 6 5 6 6 6 6 6 5 4 4 4 3 4 2 2 2 2 2 2 2 1 1 1 1 2 2 3 4 5 6 6 6 6 6 6 6 6 7 7 8
3 4 5 6 5 5 6 6 6 6 5 5 4 5 4 3 3 2 2 1 1 2 2 1 1 2 2 2 2 2 2 3 4 5 6 6 6 7 7 7 8 8 8
2 2 3 4 5 5 5 5 5 6 5 6 4 3 4 4 4 4 4 2 1 2 2 2 2 2 2 2 2 2 3 3 4 5 5 6 7 8 8 8 8 8 9
2 2 2 2 3 4 5 5 5 6 5 5 5 4 3 3 3 4 5 4 3 2 3 3 2 2 1 1 2 3 3 3 4 5 5 5 6 6 7 8 8 8 9
2 3 3 3 3 3 3 4 4 5 5 5 5 5 4 4 2 3 4 3 3 2 2 2 2 1 1 1 2 3 3 3 4 4 4 4 5 5 6 7 8 8 9
2 3 2 2 2 2 2 3 3 3 4 5 5 5 4 4 3 3 3 3 3 3 3 3 1 1 1 1 1 2 2 3 3 3 3 3 4 5 5 6 7 8 8
2 3 3 3 3 2 2 2 1 2 2 3 4 5 5 4 3 3 3 4 4 5 5 3 3 2 2 1 1 1 2 3 3 3 3 3 4 4 5 6 7 7 8
3 3 3 3 3 3 2 1 1 1 2 2 2 2 4 3 3 3 3 4 4 5 5 2 2 2 1 1 1 1 2 2 2 3 3 3 3 4 5 5 6 7 8
3 3 3 3 3 3 3 2 2 2 2 2 2 2 3 3 3 2 3 3 3 3 5 2 1 1 1 1 1 1 1 1 1 3 3 3 4 4 4 5 5 6 7
3 3 3 4 3 3 3 2 2 2 2 2 3 3 3 2 3 2 2 2 2 2 3 3 1 1 1 2 1 1 1 2 2 3 3 3 4 4 5 5 6 6 7
4 4 4 4 4 4 3 3 3 3 3 3 3 3 3 3 2 2 2 2 2 1 1 2 1 1 1 1 1 2 2 2 2 3 3 3 4 5 5 6 6 6 7
4 4 4 4 4 4 3 3 3 3 3 3 2 2 3 3 3 2 2 2 1 1 1 1 1 1 1 1 1 1 2 2 3 3 3 3 4 5 5 6 6 6 6
4 4 4 4 3 3 2 3 3 3 3 3 3 2 2 2 2 2 1 2 2 1 1 1 1 1 1 1 1 1 2 3 3 2 3 3 3 3 3 5 6 6 7
4 4 4 4 4 3 4 4 3 2 2 2 3 3 2 2 2 2 1 1 2 3 3 3 2 3 3 2 2 2 2 2 3 1 3 4 2 3 3 3 6 7 7
5 5 4 4 4 5 6 5 4 2 2 2 2 2 2 2 2 2 1 2 2 1 2 3 3 4 3 2 2 2 2 3 3 2 2 4 2 3 3 4 6 7 8
4 4 4 4 4 5 6 5 4 2 1 2 2 2 2 2 1 1 1 2 2 2 1 1 2 2 2 2 2 3 3 2 2 1 1 3 3 3 4 4 5 6 8
4 4 4 4 4 5 5 5 4 1 1 2 2 2 2 2 1 1 0 1 1 2 2 2 1 1 1 1 0 0 0 0 2 1 1 1 2 4 3 3 3 6 8
4 4 4 4 4 5 5 6 5 1 1 2 1 2 2 3 3 2 1 1 1 2 1 2 2 3 2 2 2 1 2 2 1 2 1 1 1 2 3 3 3 4 5
Wind_Direction
192 194 198 197 201 201 203 212 219 225 231 240 241 237 243 245 252 259 274 278 271 266 274 281 285 287 288 287 285 285 286 292 296 295 292 293 301 307 304 303 305 307 309
192 193 196 198 203 203 205 208 214 219 230 232 242 241 240 243 248 257 262 280 280 271 272 277 283 287 290 289 288 289 289 292 296 290 288 286 290 296 298 302 306 311 311
195 195 195 200 205 203 203 206 215 218 229 230 239 243 242 243 243 250 257 262 276 278 270 273 279 287 291 293 295 298 298 300 298 296 289 286 288 293 294 293 298 302 305
197 194 198 206 201 194 195 201 207 215 229 231 241 249 248 247 247 253 257 261 264 273 279 276 278 283 288 292 297 296 296 299 296 297 298 291 289 292 294 293 295 299 301
200 197 202 206 196 196 201 206 208 202 217 231 244 256 258 255 254 248 252 256 255 257 260 281 280 284 286 289 293 293 292 295 295 297 295 291 286 287 287 292 290 291 296
203 201 205 206 197 202 210 208 211 208 210 218 241 267 266 258 251 242 243 246 246 244 248 255 274 294 294 289 289 288 288 291 291 295 294 292 289 287 286 288 287 288 291
202 202 209 207 202 209 215 208 206 210 220 191 217 284 284 260 252 251 240 236 240 242 237 238 246 265 298 295 288 284 286 291 288 291 292 292 289 286 287 290 291 290 295
208 206 207 210 207 211 216 213 209 210 218 192 188 220 281 297 272 251 239 228 232 235 232 229 228 233 260 282 298 284 284 289 289 291 294 295 295 291 289 290 294 295 298
221 217 213 213 212 210 217 218 212 217 227 220 204 198 217 239 274 271 244 233 228 226 228 229 220 233 246 259 277 284 283 287 288 293 297 296 296 296 295 295 297 298 300
238 227 220 218 219 219 222 221 217 218 218 231 228 226 227 200 219 270 265 247 244 238 236 227 238 249 251 256 270 280 281 286 291 297 299 298 297 296 295 297 297 299 301
258 256 239 226 225 229 230 223 217 218 220 227 226 226 238 238 228 237 258 247 245 236 227 230 234 246 250 256 266 291 285 283 285 287 289 293 296 297 296 298 297 298 300
292 279 278 261 243 236 234 229 225 220 221 225 229 224 217 222 227 230 249 255 247 234 223 229 232 245 259 270 287 300 290 291 291 291 293 295 297 299 300 301 302 303 303
308 305 293 273 268 261 248 234 231 227 223 222 226 230 230 234 227 222 238 255 256 246 227 226 223 224 248 268 286 305 295 303 305 305 305 308 308 311 308 303 302 301 302
291 308 310 300 291 288 283 260 241 235 229 225 228 229 232 234 231 225 220 228 256 255 236 238 228 214 238 242 271 295 298 307 305 307 313 318 322 325 318 309 307 309 312
324 324 319 321 315 304 290 282 265 260 255 243 238 236 235 238 235 234 227 220 228 249 251 228 227 227 243 234 255 286 301 314 320 321 324 327 330 330 328 327 326 323 318
334 328 323 323 331 330 314 297 296 275 251 257 259 268 256 251 244 237 229 233 232 241 253 227 225 247 250 253 311 313 300 319 332 329 332 332 333 333 330 329 329 326 324
346 337 327 324 323 327 332 321 302 293 270 275 273 266 272 266 260 257 248 241 239 236 249 258 248 295 247 265 308 299 294 293 293 311 311 313 318 319 318 321 324 324 322
345 341 341 333 327 327 325 319 309 296 280 274 278 273 275 279 268 265 262 263 259 252 238 248 255 244 264 250 267 278 306 316 306 311 311 305 306 308 316 320 322 323 325
353 353 350 345 336 331 326 318 310 308 297 285 278 272 272 261 265 271 271 263 267 281 252 223 252 278 266 270 284 301 302 303 312 316 314 313 314 313 317 320 320 323 324
351 350 347 347 348 346 341 337 334 324 318 307 291 276 275 267 258 253 252 251 251 253 257 240 260 272 261 300 311 293 303 309 312 323 310 313 314 313 318 320 321 321 321
343 342 342 342 342 338 339 344 341 325 324 321 317 317 317 306 291 275 255 252 238 228 227 235 250 247 242 233 242 253 274 304 305 319 315 310 309 310 311 312 316 316 324
340 338 333 329 325 323 331 339 344 331 335 330 325 333 338 343 359 359 328 274 238 222 224 234 243 240 246 247 248 239 257 294 284 303 311 299 306 302 311 308 312 319 324
333 330 325 324 317 314 322 332 342 331 325 316 312 322 329 339 344 339 351 348 331 283 231 231 234 244 242 245 241 247 255 265 271 286 297 280 284 289 300 304 309 316 324
318 313 311 310 308 305 313 323 334 337 323 314 309 304 300 311 329 335 2 15 359 353 346 293 244 254 251 255 245 250 248 278 304 303 306 268 288 292 304 299 297 314 329
308 307 303 301 299 298 302 311 324 317 312 309 310 299 282 285 280 306 12 356 347 354 31 55 37 3 3 352 327 101 183 280 297 292 332 297 301 313 301 284 302 324 329
299 302 301 297 289 286 290 299 309 286 278 294 306 300 283 282 280 283 263 238 260 298 0 17 16 11 9 20 22 267 217 211 268 277 291 320 309 338 312 294 311 317 318